www.pogodaiklimat.ru

Погода и климат >> Архив погоды >> Россия >> Магаданская область >> Коркодон


ПОГОДА в Коркодоне

  • Прогноз погоды в Коркодоне
  • Монитор погоды в Коркодоне
  • Климат города

АРХИВ ПОГОДЫ в Коркодоне

Время (UTC), дата Ветер
(напр.,м/с)
 
Видим.   Явления Облачность Т
(С)
Тd
(С)
f
(%)
Тe
(С)
Тes
(С)
Комфортность P
(гПа)
Po
(гПа)
Тmin
(С)
Tmax
(С)
R
(мм)
R24
(мм)
S
(см)
03 14.05 З 5 50 км 3/3 1000 м
[Cu hum]
+8.8 -4.3 39 +6 +10 1005.1 993.2
06 14.05 З 4 50 км 3/0
[Ci fib]
+9.2 -4.8 37 +7 +10 1006.8 994.8
09 14.05 З 2 50 км 4/0
[Ac trans Ci fib]
+8.8 -4.7 38 +8 +8 1008.7 996.7 +9.3
12 14.05 СЗ 1 50 км 8/0
[Ac trans Ci fib]
+0.9 -5.9 60 -0 -0 1010.8 998.4
15 14.05 штиль 0 50 км 9/3 1000 м
[Sc Ac trans Ci fib]
-2.4 -5.0 82 -3 -3 1011.7 999.2
18 14.05 З 3 50 км 10/10 1000 м
[Sc]
+3.6 -4.5 55 0 0 1011.5 999.3
21 14.05 З 3 50 км 9/6 1000 м
[Sc Ac trans Ci fib]
+6.2 -4.1 48 +4 +5 1011.2 999.1 -2.6 27
00 15.05 ЮЗ 2 50 км 8/4 1000 м
[Sc Ci fib]
+9.2 -2.8 43 +8 +13 1010.3 998.3
03 15.05 ЮЗ 2 50 км 8/3 1000 м
[Sc Ci fib]
+11.7 -2.1 38 +11 +17 1009.3 997.5
06 15.05 Ю 2 50 км 3/0
[Ci fib]
+12.8 -1.4 37 +12 +17 1008.4 996.6
09 15.05 Ю 1 50 км 8/0
[Ac trans Ci fib]
+12.0 -1.2 40 +12 +13 1008.4 996.6 +13.3
12 15.05 С 1 50 км 8/3 1000 м
[Sc Ac trans Ci fib]
+5.2 -3.0 55 +5 +5 1009.4 997.2
15 15.05 штиль 0 50 км 8/3 1000 м
[Sc Ac trans Ci fib]
+4.3 -1.5 66 +4 +4 1009.3 997.1
18 15.05 В 3 50 км 8/3 1000 м
[Sc Ac trans Ci fib]
+7.0 -0.2 60 +4 +5 1009.8 997.7
21 15.05 ЮВ 1 50 км 3/0
[Ci fib]
+9.4 +1.4 57 +9 +14 1009.9 998.0 +3.1 22
00 16.05 ЮВ 1 50 км 5/0
[Ci fib]
+11.4 +2.4 54 +12 +22 1009.8 998.0
03 16.05 В 2 50 км 5/0
[Ci fib]
+12.5 +2.1 49 +12 +21 1008.9 997.1
06 16.05 ЮВ 1 50 км 1/0
[Ci fib]
+13.4 +1.9 46 +14 +20 1008.2 996.4
09 16.05 В 2 50 км ясно +12.2 +0.8 46 +12 +12 1007.3 995.5 +13.7
12 16.05 В 1 50 км 8/3 1000 м
[Sc Ac trans Ci fib]
+2.7 -1.8 72 +1 +1 1007.7 995.4
15 16.05 В 1 50 км 8/3 1000 м
[Sc Ac trans Ci fib]
-0.7 -1.9 92 -3 -3 1007.5 995.1
18 16.05 В 1 50 км 9/3 1000 м
[Sc Ac trans Ci fib]
+1.2 -1.4 83 -1 -0 1007.6 995.2
21 16.05 штиль 0 50 км 8/3 1000 м
[Sc Ac trans Ci fib]
+8.9 -0.2 53 +9 +11 1007.3 995.3 -0.8 15
00 17.05 В 2 50 км 8/3 1000 м
[Sc Ac trans Ci fib]
+11.6 +0.5 46 +11 +15 1006.8 995.0
03 17.05 ЮВ 3 50 км 8/3 1000 м
[Sc Ac trans Ci fib]
+13.0 +1.6 46 +12 +16 1006.4 994.6
06 17.05 Ю 4 50 км 6/0
[Ac trans Ci fib]
+13.2 +1.6 45 +12 +15 1005.9 994.2
09 17.05 Ю 1 50 км 6/3 1000 м
[Sc Ac trans Ci fib]
+11.7 +1.6 50 +12 +12 1006.6 994.8 +13.7
12 17.05 СВ 1 50 км 8/3 1000 м
[Sc Ac trans Ci fib]
+3.0 -0.2 79 +2 +2 1007.7 995.4
15 17.05 СВ 1 50 км 10/6 1000 м
[Sc Cs]
+0.4 -0.7 92 -2 -2 1008.1 995.7
18 17.05 СВ 2 50 км 10/10 1000 м
[Sc]
+3.1 +0.5 83 0 0 1008.8 996.5
21 17.05 СВ 1 50 км 10/10 1000 м
[Sc]
+6.9 +1.5 68 +6 +6 1009.1 997.0 +0.3 7
00 18.05 В 1 50 км 10/10 1000 м
[Sc]
+8.6 +1.6 61 +8 +8 1009.4 997.4
03 18.05 штиль 0 50 км 10/10 1000 м
[Cb cap]
+9.6 +2.0 59 +9 +9 1009.6 997.7
06 18.05 В 1 50 км 9/9 1000 м
[Cb cap]
+11.2 +2.1 53 +11 +12 1009.5 997.7
09 18.05 Ю 1 50 км 9/9 1000 м
[Cb cap]
+7.5 +0.7 62 +7 +7 1011.1 999.1 +11.2
12 18.05 З 1 50 км 9/9 1000 м
[Sc]
+4.2 +0.5 77 +3 +3 1012.5 1000.3
15 18.05 З 1 50 км 10/10 1000 м
[Sc]
+2.4 +0.8 89 +1 +1 1013.3 1001.0
18 18.05 З 1 50 км 4/4 1000 м
[Sc]
+1.8 +1.0 94 -0 0 1014.6 1002.3
21 18.05 З 1 50 км ясно +4.6 +1.3 79 +3 +9 1014.5 1002.3 +1.8 4
00 19.05 В 1 50 км ясно +11.8 -1.6 39 +12 +24 опасность
простуды
1013.7 1001.8
03 19.05 В 1 50 км ясно +13.4 -1.4 36 +14 +27 опасность
простуды
1012.9 1001.1
06 19.05 ЮВ 1 50 км 3/0
[Ci fib]
+14.0 -1.1 35 +15 +21 1012.6 1000.8
09 19.05 ЮВ 1 50 км 6/3 1000 м
[Sc Ac trans Ci fib]
+11.7 -1.4 40 +12 +13 1012.9 1001.0 +14.3
12 19.05 СЗ 1 50 км 8/3 1000 м
[Sc Ac trans Ci fib]
+3.2 -1.9 69 +2 +2 1014.5 1002.2
15 19.05 СЗ 1 50 км 8/3 1000 м
[Sc Ac trans Ci fib]
+1.8 -0.7 83 0 0 1015.0 1002.7
18 19.05 штиль 0 50 км 9/4 1000 м
[Sc Ac trans]
+0.7 -1.0 88 -1 -0 1015.3 1002.9
21 19.05 штиль 0 50 км 9/8 1000 м
[Sc Ac trans]
+4.6 -0.2 71 +4 +5 1015.1 1002.9 +0.4 1
00 20.05 В 1 50 км 9/6 1000 м
[Sc Ac trans]
+10.1 -0.7 47 +10 +13 1014.0 1002.0
03 20.05 ЮВ 3 50 км 9/6 1000 м
[Sc Ac trans]
+10.4 -2.8 39 +9 +11 1013.2 1001.2
06 20.05 Ю 4 50 км 9/9 1000 м
[Cb cap]
+10.0 +1.9 57 +8 +8 1012.7 1000.7
09 20.05 В 3 50 км 4/3 1000 м
[Sc Ac trans]
+8.4 +2.7 67 +6 +6 1012.2 1000.1 +10.6
12 20.05 штиль 0 50 км 3/0
[Ci fib]
+1.6 +0.8 94 0 0 1011.3 999.0
15 20.05 штиль 0 50 км 3/3 1000 м
[Sc]
-0.5 -0.8 98 -2 -2 1010.0 997.6
18 20.05 ЮВ 1 50 км туман местами 8/3 1000 м
[Sc Ac trans]
+0.9 +0.6 98 -1 -1 1009.1 996.7
21 20.05 В 1 50 км 9/9 300 м
[St]
+1.9 +0.8 92 0 +1 1008.5 996.2 -1.5 0
00 21.05 В 1 50 км 9/5 1000 м
[Sc Ac trans Ci fib]
+9.0 +0.9 57 +9 +12 1006.8 994.8

 

Местоположение метеостанции Коркодон (Магаданская область, Россия): широта 64.75 долгота 153.90 высота над уровнем моря 99 м.

В архиве по умолчанию представлена погода в Коркодоне за последнюю неделю. Архивные данные за месяц целиком и за предыдущие месяцы, начиная с января 2011 года, Вы можете получить, выбрав интересующий диапазон дат из раскрывающегося списка и нажав кнопку "Ввод!".


*Определитесь, кто Вы:
робот инопланетянин человек

Внимание! Время в таблицах - всемирное. Для получения местного времени необходимо прибавить поправку, которая в Коркодоне равна 11 ч.

Смотрите также архив погоды в соседних городах и на ближайших метеорологических станциях:

Погода в Балыгычане (Магаданская область, Россия) (94 км)
Погода в Зырянке (Якутия, Россия) (177 км)
Погода в Сеймчане (Магаданская область, Россия) (217 км)
Погода в Омсукчане (Магаданская область, Россия) (265 км)
Погода в Среднекане (Магаданская область, Россия) (268 км)
Погода в Совхозе Эльген (Магаданская область, Россия) (271 км)
Погода в Лабазной (Магаданская область, Россия) (276 км)
Погода в Среднеколымске (Якутия, Россия) (300 км)
Погода в Омолоне (Чукотка, Россия) (315 км)
Погода в Ягодной (Магаданская область, Россия) (327 км)

Пояснения к столбцам:

Ветер - указаны скорость ветра в м/с - средняя за 10 мин, порывы в срок и между сроками (в фигурных скобках) и направление, откуда дует ветер: С - северный, СВ - северо-восточный, В - восточный, ЮВ - юго-восточный, Ю - южный, ЮЗ - юго-западный, З - западный, СЗ - северо-западный.
Видимость - горизонтальная дальность видимости в метрах или километрах. При видимости от 1 до 10 км при отсутствии осадков обычно наблюдается дымка, при ухудшении видимости до 1 км и менее - туман. В сухую погоду видимость может ухудшаться дымом, пылью или мглою.
Явления - указаны атмосферные явления, наблюдавшиеся в срок или в последний час перед сроком; фигурными скобками обозначены явления, наблюдавшиеся между сроками (за 1-3 часа до срока); квадратными скобками обозначены град или гололедные отложения с указанием их диаметра в мм.
Облачность - указаны через наклонную черту общая и нижняя облачность в баллах и высота нижней границы облаков в метрах; квадратными скобками обозначены формы облаков: Ci - перистые, Cs - перисто-слоистые, Cc - перисто-кучевые, Ac - высококучевые, As - высокослоистые, Sc - слоисто-кучевые, Ns - слоисто-дождевые, Cu - кучевые, Cb - кучево-дождевые. Подробнее классификацию облаков см. в Атласе облаков (PDF).
T - Температура воздуха - температура, измеренная на высоте 2 м над землей.
Td - Температура точки росы - температура, при понижении до которой содержащийся в воздухе водяной пар достигнет насыщения.
f - Относительная влажность воздуха - влажноcть воздуха, измеренная на высоте 2 м над землей.
Te - Эффективная температура - температура, которую ощущает одетый по сезону человек в тени. Характеристика душности погоды. При расчете учитывается влияние влажности воздуха и скорости ветра на теплоощущения человека.
Tes - Эффективная температура на солнце - температура, которую ощущает человек, с поправкой на солнечный нагрев. Характеристика знойности погоды. Зависит от высоты солнца над горизонтом, облачности и скорости ветра. Ночью, в пасмурную погоду, а также при ветре 12 м/с и более поправка равна нулю.
P - Атмосферное давление - приведенное к уровню моря атмосферное давление.
Po - Атмосферное давление - измеренное на уровне метеостанции атмосферное давление.
Tmin - Минимальная температура - минимум температуры воздуха на высоте 2 м над землей.
Tmax - Максимальная температура - максимум температуры воздуха на высоте 2 м над землей.
R - Количество осадков - Количество выпавших осадков за период времени, мм. При наведении курсора мыши на число - период времени, за который выпало указанное количество осадков.
R24 - Количество осадков - Количество выпавших осадков за 24 часа, мм.
S - Снежный покров - Высота снежного покрова, см. При наведении курсора мыши на число - состояние снежного покрова и степень покрытия местности в баллах.